Location: Newark
(41.7772°N, 74.7403°W)
Time: 13:09:17
(UTC+00:00)

Transit 4A - Pass Details

Date: 27 May 2020
Orbit: 866 x 978 km, 66.8° (Epoch: 06 July)

Event Time Altitude Azimuth Distance (km) Brightness Sun altitude
Exits shadow 06:44:51 33° 159° (SSE) 1,431 8.5 -22.0°
Maximum altitude 06:46:52 45° 112° (ESE) 1,175 8.4 -21.8°
Drops below altitude 10° 06:52:25 10° 42° (NE) 2,546 11.3 -21.3°
Sets 06:55:01 0° 36° (NE) 3,503 12.4 -21.1°
